{"data":{"norad_id":81864,"intl_designator":"","name":"UNKNOWN","alt_names":[],"object_type":"UNKNOWN","status":"UNKNOWN","operator":null,"country":null,"launch_date":null,"launch_site_code":null,"launch_vehicle":null,"mission":null,"orbit_class":"UNKNOWN","rcs_meters":null,"size_class":null,"mass_kg":null,"dimensions":null,"purposes":[],"wikipedia_slug":null,"has_3d_model":false,"image_url":null,"decayed_at":null,"tle_current":{"epoch":"2026-05-21T11:33:31.338144Z","epoch_age_seconds":379338,"freshness":"STALE","line1":"1 81864U          26141.48161271  .00000475  00000+0  20558-3 0  9999","line2":"2 81864  65.6731  53.2416 0771781 304.4311  48.6080 13.32941731572122","mean_motion":13.32941731,"eccentricity":0.0771781,"inclination_deg":65.6731,"raan_deg":53.2416,"arg_perigee_deg":304.4311,"mean_anomaly_deg":48.608,"bstar":0.00020558,"rev_number":57212,"period_min":108.03172910789,"perigee_km":555.78508428786,"apogee_km":1715.5905288994,"semimajor_km":7513.8248065936,"source":"CELESTRAK","updated_at":"2026-05-25T13:38:11.086851Z"}}}